N1JFY Weather Reports


Display with metric or nautical units.
time (UTC)temp
F
wind
direction
speed
MPH
gust
MPH
rain 1hr
in
rain 24hr
in
rain mn
in
humidity
%
barometer
mb
20260906041555 50 0.0 0.0 0.00 0.44 0.00 90 1012.7
20260906040046 50 0.0 0.0 0.00 0.44 0.00 91 1012.8
20260906034546 49 0.0 0.0 0.00 0.44 0.44 90 1012.8
20260906033038 50 0.0 0.0 0.00 0.44 0.44 88 1012.9
20260906031534 51 0.0 0.0 0.00 0.44 0.44 86 1012.9
20260906030029 52 0.0 0.0 0.00 0.44 0.44 84 1012.9
20260906024524 52 0.0 0.0 0.00 0.44 0.44 86 1013.1
20260906023019 52 0.0 0.0 0.00 0.44 0.44 86 1013.0
20260906021517 53 0.0 0.0 0.00 0.44 0.44 84 1013.0
20260906020012 54 0.0 0.0 0.00 0.44 0.44 84 1013.1
20260906014521 54 0.0 0.0 0.00 0.44 0.44 86 1013.2
20260906013005 54 0.0 0.0 0.00 0.44 0.44 86 1013.0
20260906011601 54 0.0 0.0 0.00 0.44 0.44 88 1013.2
20260906010059 54 0.0 0.0 0.00 0.44 0.44 88 1013.0
20260906004549 54 0.0 0.0 0.00 0.44 0.44 87 1013.1
20260906003056 54 0.0 0.0 0.00 0.44 0.44 87 1013.1
20260906001540 55 0.0 0.0 0.00 0.44 0.44 85 1013.0
20260906000036 56 0.0 0.0 0.00 0.44 0.44 83 1012.9
20260905234532 57 0.0 0.0 0.00 0.44 0.44 81 1012.9
20260905233029 57 0.0 0.0 0.00 0.44 0.44 80 1012.9
20260905231535 58 0.0 0.0 0.00 0.44 0.44 79 1012.8
20260905230021 58 0.0 0.0 0.00 0.44 0.44 79 1012.8
20260905224524 59 0.0 0.0 0.00 0.44 0.44 79 1012.3
20260905223010 59 0.0 0.0 0.00 0.44 0.44 79 1012.2
20260905221505 60 0.0 0.0 0.00 0.44 0.44 77 1012.0
20260905220001 60 0.0 0.0 0.00 0.44 0.44 75 1011.9
20260905214557 61 0.0 0.0 0.00 0.45 0.44 74 1011.7
20260905213056 61 0.0 0.0 0.00 0.45 0.44 72 1011.5
20260905211547 62 0.0 0.0 0.00 0.45 0.44 72 1011.3
20260905210046 62 0.0 0.0 0.00 0.45 0.44 73 1011.1
20260905204548 62 0.0 0.0 0.00 0.45 0.44 72 1011.2
20260905203036 62 0.0 0.0 0.00 0.45 0.44 71 1011.1
20260905201530 62 0.0 0.0 0.00 0.45 0.44 75 1010.8
20260905200026 60 0.0 0.0 0.00 0.45 0.44 77 1011.0
20260905194522 62 0.0 0.0 0.00 0.45 0.44 74 1010.9
20260905193017 62 0.0 0.0 0.00 0.45 0.44 74 1010.8
20260905191512 64 0.0 0.0 0.00 0.45 0.44 68 1010.5
20260905190011 64 0.0 0.0 0.00 0.45 0.44 64 1010.5
20260905184506 63 0.0 0.0 0.00 0.45 0.44 71 1010.6
20260905183101 64 0.0 0.0 0.00 0.45 0.44 67 1010.5
20260905181600 63 0.0 0.0 0.00 0.45 0.44 67 1010.4
20260905180058 64 0.0 0.0 0.00 0.45 0.44 67 1010.5
20260905174546 64 0.0 0.0 0.00 0.45 0.44 68 1010.5
20260905173042 64 0.0 0.0 0.00 0.45 0.44 66 1010.4
20260905171537 63 0.0 0.0 0.00 0.45 0.44 70 1010.5
20260905170038 63 0.0 0.0 0.00 0.45 0.44 69 1010.6
20260905164529 61 0.0 0.0 0.00 0.45 0.44 74 1010.7
20260905163024 61 0.0 0.0 0.00 0.45 0.44 75 1010.6
20260905161520 61 0.0 0.0 0.00 0.45 0.44 77 1010.5
20260905160035 61 0.0 0.0 0.00 0.45 0.44 76 1010.3
20260905154511 61 0.0 0.0 0.00 0.45 0.44 78 1010.4
20260905153007 60 0.0 0.0 0.00 0.45 0.44 78 1010.6
20260905151502 60 0.0 0.0 0.00 0.45 0.44 79 1010.6
20260905150101 60 0.0 0.0 0.00 0.45 0.44 82 1010.6
20260905144555 59 0.0 0.0 0.00 0.45 0.44 81 1010.5
20260905143054 60 0.0 0.0 0.00 0.45 0.44 81 1010.4
20260905141545 60 0.0 0.0 0.00 0.45 0.44 81 1010.5
20260905140041 59 0.0 0.0 0.00 0.45 0.44 82 1010.3
20260905134536 58 0.0 0.0 0.00 0.45 0.44 84 1010.1
20260905133032 58 0.0 0.0 0.00 0.45 0.44 86 1009.9
20260905131541 57 0.0 0.0 0.00 0.45 0.44 87 1009.9
20260905130025 57 0.0 0.0 0.00 0.45 0.44 88 1010.0
20260905124529 57 0.0 0.0 0.00 0.45 0.44 89 1009.9
20260905123016 57 0.0 0.0 0.00 0.45 0.44 90 1009.8
20260905121510 56 0.0 0.0 0.01 0.45 0.44 91 1009.8
20260905120005 56 0.0 0.0 0.01 0.45 0.44 91 1009.8
20260905114502 56 0.0 0.0 0.01 0.45 0.44 92 1009.7
20260905113057 55 0.0 0.0 0.01 0.45 0.44 93 1009.6
20260905111630 55 0.0 0.0 0.00 0.44 0.43 94 1009.6
20260905110053 55 0.0 0.0 0.00 0.44 0.43 93 1009.5
20260905104543 55 0.0 0.0 0.00 0.44 0.43 93 1009.4
20260905103040 55 0.0 0.0 0.00 0.44 0.43 93 1009.2
20260905101542 55 0.0 0.0 0.00 0.44 0.43 92 1009.0
20260905100031 55 0.0 0.0 0.00 0.44 0.43 92 1009.1
20260905094526 55 0.0 0.0 0.00 0.44 0.43 92 1008.9
20260905093022 55 0.0 0.0 0.00 0.44 0.43 93 1008.8
20260905091521 55 0.0 0.0 0.00 0.44 0.43 93 1008.7
20260905090016 55 0.0 0.0 0.00 0.44 0.43 93 1008.6
20260905084509 56 0.0 0.0 0.00 0.44 0.43 92 1008.6
20260905083005 56 0.0 0.0 0.00 0.44 0.43 92 1008.3
20260905081606 57 0.0 0.0 0.00 0.44 0.43 94 1008.1
20260905074551 58 0.0 0.0 0.01 0.45 0.43 95 1007.7
20260905073047 58 0.0 0.0 0.06 0.45 0.43 96 1007.6
20260905071542 58 0.0 0.0 0.12 0.45 0.43 96 1007.5
20260905070039 58 0.0 0.0 0.19 0.45 0.43 96 1007.4
20260905064535 58 0.0 0.0 0.21 0.43 0.41 95 1007.4
20260905063028 58 0.0 0.0 0.21 0.39 0.37 95 1007.2
20260905061524 58 0.0 0.0 0.17 0.33 0.31 95 1007.2
20260905060031 58 0.0 0.0 0.11 0.25 0.23 95 1007.0
20260905054516 59 0.0 0.0 0.09 0.22 0.20 94 1007.1
20260905053026 59 0.0 0.0 0.13 0.18 0.16 94 1007.1
20260905051507 59 0.0 0.0 0.14 0.16 0.14 95 1006.8
20260905050002 59 0.0 0.0 0.12 0.14 0.12 94 1006.6
20260905044604 60 0.0 0.0 0.11 0.13 0.11 94 1006.6
20260905043053 60 0.0 0.0 0.03 0.05 0.03 93 1006.4